www.pogodaiklimat.ru

Погода и климат >> Архив погоды >> Швейцария >> Шаффхаузен


ПОГОДА в Шаффхаузене

  • Прогноз погоды в Шаффхаузене
  • Монитор погоды в Шаффхаузене

АРХИВ ПОГОДЫ в Шаффхаузене

Время (UTC), дата Ветер
(напр.,м/с)
 
Видим.   Явления Облачность Т
(С)
Тd
(С)
f
(%)
Тe
(С)
Тes
(С)
Комфортность P
(гПа)
Po
(гПа)
Тmin
(С)
Tmax
(С)
R
(мм)
R24
(мм)
S
(см)
13 13.07 З 2
{6}
н/о н/о +21.0 +8.9 46 +23 +23 комфорт 1016.6 966.5
14 13.07 СЗ 3
{8}
н/о н/о +22.4 +8.8 42 +24 +24 комфорт 1016.0 966.2
15 13.07 З 3
{8}
н/о н/о +22.7 +9.2 42 +24 +24 комфорт 1016.0 966.2
16 13.07 СЗ 2
{6}
н/о н/о +21.1 +7.3 41 +22 +22 комфорт 1016.0 965.9
17 13.07 СЗ 3
{5}
н/о н/о +20.5 +9.2 48 +22 +22 комфорт 1016.2 966.0
18 13.07 СЗ 3
{8}
н/о н/о +20.4 +8.5 46 +22 +22 комфорт 1016.2 966.0 +23.2
19 13.07 С 4
{6}
н/о н/о +18.5 +10.5 60 +19 +19 1016.9 966.3
20 13.07 СЗ 1
{4}
н/о н/о +16.4 +11.2 71 +17 +17 1017.8 966.8
21 13.07 СЗ 1
{6}
н/о н/о +16.1 +10.7 70 +17 +17 1018.2 967.1
22 13.07 СЗ 3
{4}
н/о н/о +14.6 +10.8 78 +14 +14 1018.3 967.0
23 13.07 С 2
{4}
н/о н/о +13.8 +10.2 79 +14 +14 1018.4 966.9
00 14.07 С 3
{6}
н/о н/о +12.9 +10.3 84 +11 +11 1018.2 966.6
01 14.07 СВ 3
{5}
н/о н/о +12.9 +10.1 83 +12 +12 1017.8 966.2
02 14.07 С 4
{4}
н/о н/о +12.4 +10.2 86 +11 +11 1017.5 965.8
03 14.07 СВ 3
{5}
н/о н/о +12.1 +10.0 87 +10 +10 1017.2 965.5
04 14.07 С 3
{5}
н/о н/о +11.8 +9.8 88 +10 +10 1017.1 965.3
05 14.07 СВ 4
{5}
н/о н/о +12.8 +10.3 85 +11 +11 1016.7 965.1
06 14.07 СВ 3
{5}
н/о н/о +14.1 +10.9 81 +13 +13 1016.3 965.0 +11.4
07 14.07 СВ 3
{7}
н/о н/о +17.6 +12.0 70 +18 +18 1015.7 965.0
08 14.07 В 4
{8}
н/о н/о +18.9 +11.0 60 +20 +20 1015.5 965.1
09 14.07 В 4
{8}
н/о н/о +20.5 +11.1 55 +23 +23 комфорт 1014.9 964.8
10 14.07 В 3
{8}
н/о н/о +22.0 +10.2 47 +24 +24 комфорт 1014.2 964.4
11 14.07 В 5
{9}
н/о н/о +22.9 +10.9 47 +25 +25 комфорт 1013.6 964.0
12 14.07 В 5
{9}
н/о н/о +22.8 +9.3 42 +24 +24 комфорт 1013.0 963.4
13 14.07 В 4
{9}
н/о н/о +24.0 +9.9 41 +25 +25 комфорт 1012.1 962.7
14 14.07 В 4
{9}
н/о н/о +24.3 +10.3 41 +25 +25 комфорт 1011.7 962.4
15 14.07 С 6
{14}
н/о н/о +19.1 +11.2 60 +20 +20 1013.1 962.8
16 14.07 С 7
{14}
н/о н/о +18.6 +11.2 62 +19 +19 1013.3 962.9
17 14.07 С 6
{14}
н/о н/о +18.2 +10.4 60 +18 +18 1013.3 962.9
18 14.07 СВ 5
{14}
н/о н/о +17.8 +10.4 62 +17 +17 1013.9 963.4 +24.3
19 14.07
{10}
н/о н/о +17.0 +10.8 67 1014.0 963.3
20 14.07
{11}
н/о н/о +16.7 +11.0 69 1014.8 964.0
21 14.07 С 4
{11}
н/о н/о +16.5 +11.4 72 +16 +16 1014.7 963.9
22 14.07 В 2
{9}
н/о н/о +16.4 +11.4 72 +17 +17 1015.2 964.3
23 14.07 СВ 2
{6}
н/о н/о +15.9 +11.4 75 +16 +16 1015.1 964.2
00 15.07 СВ 3
{11}
н/о н/о +15.5 +12.1 80 +15 +15 1014.9 963.9
01 15.07 СВ 3
{6}
н/о н/о +15.4 +10.4 72 +15 +15 1014.6 963.6
02 15.07 СВ 4
{7}
н/о н/о +14.9 +10.3 74 +14 +14 1014.6 963.5
03 15.07 СВ 5
{9}
н/о н/о +14.8 +10.0 73 +13 +13 1014.4 963.3
04 15.07 СВ 4
{9}
н/о н/о +14.5 +10.6 77 +13 +13 1014.4 963.2
05 15.07 СВ 4
{8}
н/о н/о +14.7 +10.4 75 +14 +14 1014.3 963.2
06 15.07 СВ 3
{9}
н/о н/о +14.9 +10.7 76 +14 +14 1015.1 964.0 +14.5
07 15.07 СВ 3
{8}
н/о н/о +16.0 +11.2 73 +16 +16 1015.1 964.2
08 15.07 СВ 4
{9}
н/о н/о +16.0 +11.4 74 +15 +15 1015.4 964.5
09 15.07 С 3
{9}
н/о н/о +18.3 +12.3 68 +19 +19 1015.0 964.5
10 15.07 СВ 4
{10}
н/о н/о +19.2 +11.9 63 +20 +20 1014.8 964.5
11 15.07 СВ 4
{9}
н/о н/о +19.6 +11.6 60 +21 +21 комфорт 1014.8 964.5
12 15.07 В 4
{10}
н/о н/о +22.0 +10.5 48 +24 +24 комфорт 1014.0 964.2
13 15.07 СВ 5
{9}
н/о н/о +23.2 +10.6 45 +25 +25 комфорт 1013.6 964.0
14 15.07 СВ 4
{8}
н/о н/о +24.0 +10.4 42 +25 +25 комфорт 1013.4 964.0
15 15.07 С 4
{9}
н/о н/о +21.3 +12.2 56 +23 +23 комфорт 1013.9 964.0
16 15.07 С 3
{8}
н/о н/о +22.8 +11.6 49 +25 +25 комфорт 1013.4 963.8
17 15.07
{12}
н/о н/о +20.8 +11.8 56 1014.1 964.1
18 15.07 С 3
{12}
н/о н/о +20.9 +12.4 58 +24 +24 комфорт 1014.4 964.4 +24.7
19 15.07 СВ 3
{5}
н/о н/о +19.8 +12.4 62 +22 +22 комфорт 1014.9 964.7
20 15.07 С 4
{6}
н/о н/о +18.5 +11.8 65 +19 +19 1015.9 965.4
21 15.07 С 4
{7}
н/о н/о +16.4 +12.0 75 +16 +16 1016.7 965.8
22 15.07 СВ 4
{7}
н/о н/о +14.9 +11.7 81 +14 +14 1017.3 966.1
23 15.07 СВ 1
{6}
н/о н/о +14.8 +11.3 80 +15 +15 1017.6 966.3
00 16.07 СВ 2
{7}
н/о н/о +14.2 +11.2 82 +14 +14 1017.7 966.3
01 16.07 СВ 2
{3}
н/о н/о +13.8 +11.0 83 +13 +13 1018.0 966.5
02 16.07 С 1
{3}
н/о н/о +12.4 +10.6 89 +12 +12 1018.3 966.6
03 16.07 СЗ 2
{3}
н/о н/о +12.3 +10.4 88 +12 +12 1018.4 966.6
04 16.07 СВ 2
{3}
н/о н/о +11.7 +10.0 89 +10 +10 1018.4 966.5
05 16.07 СВ 1
{2}
н/о н/о +13.0 +10.7 86 +13 +13 1018.3 966.7
06 16.07 В 1
{3}
н/о н/о +15.1 +10.9 76 +16 +16 1018.1 966.9 +11.5
07 16.07 В 2
{4}
н/о н/о +16.8 +11.3 70 +17 +17 1017.8 966.9
08 16.07 ЮВ 2
{4}
н/о н/о +19.1 +12.4 65 +21 +21 комфорт 1017.2 966.7
09 16.07 ЮВ 2
{4}
н/о н/о +20.4 +11.8 58 +23 +23 комфорт 1016.7 966.5
10 16.07 В 3
{5}
н/о н/о +21.2 +11.4 54 +23 +23 комфорт 1016.5 966.4
11 16.07 ЮВ 3
{5}
н/о н/о +23.1 +10.9 46 +25 +25 комфорт 1015.8 966.1
12 16.07 Ю 2
{5}
н/о н/о +25.0 +11.6 43 +26 +26 жарко 1014.8 965.5
13 16.07 Ю 2
{6}
н/о н/о +25.0 +10.4 40 +26 +26 жарко 1014.4 965.1
14 16.07 Ю 3
{6}
н/о н/о +25.6 +10.6 39 +27 +27 жарко 1014.0 964.8
15 16.07 ЮЗ 3
{6}
н/о н/о +26.2 +9.8 36 +27 +27 жарко 1013.6 964.5
16 16.07 Ю 2
{6}
н/о н/о +26.0 +9.6 36 +27 +27 жарко 1013.4 964.3
17 16.07 Ю 2
{5}
н/о н/о +25.7 +10.2 38 +27 +27 жарко 1013.2 964.1
18 16.07 З 4
{6}
н/о н/о +24.5 +11.0 43 +26 +26 жарко 1013.6 964.2 +26.3
19 16.07 З 4
{6}
н/о н/о +21.6 +11.8 54 +24 +24 комфорт 1014.2 964.3
20 16.07 С 4
{6}
н/о н/о +21.1 +10.6 51 +23 +23 комфорт 1014.6 964.6
21 16.07 С 4
{6}
н/о н/о +18.2 +11.8 66 +18 +18 1015.3 964.8
22 16.07 СВ 3
{4}
н/о н/о +18.1 +10.2 60 +18 +18 1015.6 965.0
23 16.07 С 4
{6}
н/о н/о +16.9 +10.2 65 +16 +16 1015.9 965.1
00 17.07 С 4
{7}
н/о н/о +15.2 +11.3 78 +14 +14 1016.1 965.0
01 17.07 С 3
{5}
н/о н/о +15.0 +10.5 74 +14 +14 1016.1 964.9
02 17.07 С 3
{5}
н/о н/о +15.1 +11.4 79 +14 +14 1015.7 964.6
03 17.07 С 2
{5}
н/о н/о +14.6 +10.9 78 +14 +14 1015.6 964.4
04 17.07 З 2
{3}
н/о н/о +14.4 +10.4 77 +14 +14 1015.5 964.3
05 17.07 З 4
{4}
н/о н/о +14.7 +10.9 78 +14 +14 1015.3 964.1
06 17.07 З 2
{5}
н/о н/о +16.4 +11.1 71 +17 +17 1014.8 964.0 +13.6
07 17.07 ЮЗ 2
{3}
н/о н/о +18.6 +12.5 68 +20 +20 1014.3 963.9
08 17.07 Ю 2
{4}
н/о н/о +20.3 +12.5 61 +23 +23 комфорт 1013.8 963.7
09 17.07 Ю 2
{4}
н/о н/о +22.9 +13.7 56 +26 +26 жарко 1013.2 963.6
10 17.07 Ю 2
{5}
н/о н/о +24.5 +12.7 48 +26 +26 жарко 1012.5 963.2
11 17.07 З 3
{8}
н/о н/о +26.2 +10.3 37 +27 +27 жарко 1011.9 962.9
12 17.07 З 4
{8}
н/о н/о +27.0 +9.2 33 +27 +27 жарко 1011.3 962.5
13 17.07 З 4
{9}
н/о н/о +27.6 +8.0 29 +27 +27 жарко 1010.9 962.2
14 17.07 З 6
{10}
н/о н/о +27.8 +5.7 25 +27 +27 жарко 1010.6 961.9
15 17.07 З 5
{10}
н/о н/о +28.2 +4.8 22 +27 +27 жарко 1010.1 961.5
16 17.07 З 5
{10}
н/о н/о +28.0 +3.0 20 +26 +26 жарко 1009.7 961.1
17 17.07 ЮЗ 5
{9}
н/о н/о +26.9 +3.9 23 +26 +26 жарко 1009.8 961.0
18 17.07 СЗ 3
{10}
н/о н/о +25.0 +8.4 35 +25 +25 комфорт 1010.3 961.2 +28.5
19 17.07 С 4
{6}
н/о н/о +22.5 +9.6 44 +24 +24 комфорт 1010.9 961.3
20 17.07 В 2
{5}
н/о н/о +20.3 +10.3 53 +22 +22 комфорт 1011.8 961.8
21 17.07 СВ 2
{6}
н/о н/о +18.6 +10.2 58 +20 +20 1012.3 962.0
22 17.07 СВ 2
{2}
н/о н/о +17.6 +10.2 62 +18 +18 1012.8 962.3
23 17.07 СВ 3
{4}
н/о н/о +16.8 +9.8 63 +17 +17 1013.2 962.5
00 18.07 С 4
{6}
н/о н/о +16.1 +9.5 65 +15 +15 1013.3 962.5
01 18.07 С 3
{5}
н/о н/о +16.0 +9.3 64 +16 +16 1013.2 962.4
02 18.07 С 2
{4}
н/о н/о +15.6 +9.6 67 +16 +16 1013.2 962.3
03 18.07 З 3
{5}
н/о н/о +14.7 +9.8 72 +14 +14 1013.2 962.1
04 18.07 З 5
{5}
н/о н/о +14.1 +10.2 77 +13 +13 1013.4 962.2
05 18.07 З 3
{6}
н/о н/о +14.7 +10.2 74 +14 +14 1013.4 962.3
06 18.07 З 4
{6}
н/о н/о +15.6 +10.6 72 +15 +15 1013.7 962.8 +14.1
07 18.07 З 4
{5}
н/о н/о +17.1 +10.8 66 +17 +17 1013.8 963.1
08 18.07 ЮЗ 2
{5}
н/о н/о +19.2 +11.9 63 +21 +21 комфорт 1013.5 963.2
09 18.07 ЮЗ 2
{5}
н/о н/о +22.3 +11.6 51 +25 +25 комфорт 1012.8 963.1
10 18.07 З 3
{5}
н/о н/о +24.2 +10.6 42 +25 +25 комфорт 1012.3 963.0
11 18.07 ЮЗ 3
{7}
н/о н/о +25.6 +9.2 35 +26 +26 жарко 1012.0 962.9
12 18.07 З 4
{9}
н/о н/о +25.7 +8.0 32 +26 +26 жарко 1011.6 962.5
13 18.07 СЗ 2
{9}
н/о н/о +27.5 +7.3 28 +27 +27 жарко 1011.2 962.5
14 18.07 З 3
{7}
н/о н/о +27.8 +7.2 27 +27 +27 жарко 1011.0 962.3
15 18.07 З 5
{9}
н/о н/о +27.6 +7.8 29 +27 +27 жарко 1010.9 962.2
16 18.07 Ю 2
{7}
н/о н/о +26.3 +7.1 29 +26 +26 жарко 1010.9 962.0
17 18.07 З 1
{4}
н/о н/о +26.2 +8.4 32 +26 +26 жарко 1010.8 961.9
18 18.07 З 3
{9}
н/о н/о +25.2 +10.0 38 +26 +26 жарко 1011.3 962.2 +28.3
19 18.07 З 3
{4}
н/о н/о +24.1 +10.2 41 +25 +25 комфорт 1011.9 962.6
20 18.07 З 4
{4}
н/о н/о +22.0 +11.0 50 +24 +24 комфорт 1013.0 963.2
21 18.07 З 4
{4}
н/о н/о +20.5 +12.0 58 +23 +23 комфорт 1013.5 963.5
22 18.07 З 4
{5}
н/о н/о +20.4 +11.1 55 +22 +22 комфорт 1013.8 963.7
23 18.07 З 5
{6}
н/о н/о +19.4 +11.8 61 +20 +20 1014.3 964.0
00 19.07 З 3
{6}
н/о н/о +19.6 +11.6 60 +21 +21 комфорт 1014.5 964.2
01 19.07 ЮЗ 2
{3}
н/о н/о +18.9 +12.5 66 +21 +21 комфорт 1014.8 964.4
02 19.07 З 2
{3}
н/о н/о +18.0 +12.2 69 +19 +19 1015.2 964.6
03 19.07 З 3
{4}
н/о н/о +17.2 +12.1 72 +17 +17 1015.4 964.7
04 19.07 З 4
{5}
н/о н/о +16.6 +12.4 76 +16 +16 1015.7 964.9
05 19.07 З 5
{5}
н/о н/о +17.3 +12.0 71 +17 +17 1015.7 965.0
06 19.07 З 4
{5}
н/о н/о +18.2 +12.3 68 +18 +18 1016.0 965.4 +16.2
07 19.07 З 5
{6}
н/о н/о +19.9 +13.0 64 +21 +21 комфорт 1016.0 965.7
08 19.07 З 5
{7}
н/о н/о +21.9 +13.5 59 +25 +25 комфорт 1015.6 965.7
09 19.07 З 3
{7}
н/о н/о +24.5 +13.5 50 +27 +27 жарко 1015.3 965.9
10 19.07 З 3
{7}
н/о н/о +25.8 +11.9 42 +27 +27 жарко 1014.8 965.6
11 19.07 З 4
{9}
н/о н/о +25.9 +11.2 40 +27 +27 жарко 1014.8 965.6
12 19.07 З 4
{9}
н/о н/о +27.2 +10.6 35 +28 +28 жарко 1014.1 965.2
13 19.07 З 6
{11}
н/о н/о +27.1 +9.9 34 +28 +28 жарко 1013.9 965.0
14 19.07 З 6
{10}
н/о н/о +26.5 +11.7 40 +28 +28 жарко 1013.7 964.7
15 19.07 З 5
{11}
н/о н/о +27.4 +10.8 35 +28 +28 жарко 1013.2 964.4
16 19.07 ЮЗ 5
{8}
н/о н/о +27.6 +10.2 34 +28 +28 жарко 1012.9 964.1
17 19.07 З 3
{8}
н/о н/о +27.1 +11.6 38 +28 +28 жарко 1013.0 964.1
18 19.07 ЮЗ 3
{11}
н/о н/о +26.2 +11.9 41 +28 +28 жарко 1012.9 963.9 +28.0
19 19.07 З 2
{5}
н/о н/о +22.9 +13.4 55 +26 +26 жарко 1013.6 964.0
20 19.07 З 4
{4}
н/о н/о +21.1 +14.0 64 +24 +24 комфорт 1014.5 964.5
21 19.07 С 2
{5}
н/о н/о +20.4 +13.2 63 +23 +23 комфорт 1014.9 964.8
22 19.07 С 5
{6}
н/о н/о +18.7 +13.0 69 +19 +19 1015.7 965.2
23 19.07 СВ 4
{6}
н/о н/о +18.4 +12.9 70 +19 +19 1015.6 965.1
00 20.07 СВ 4
{6}
н/о н/о +17.4 +12.8 74 +17 +17 1015.7 965.0
01 20.07 СВ 5
{7}
н/о н/о +16.9 +13.0 78 +16 +16 1015.4 964.6
02 20.07 СВ 4
{7}
н/о н/о +17.0 +13.0 77 +17 +17 1015.3 964.5
03 20.07 СВ 3
{7}
н/о н/о +16.0 +13.1 83 +16 +16 1015.3 964.4
04 20.07 СВ 1
{4}
н/о н/о +15.9 +13.0 83 +17 +17 1015.5 964.5
05 20.07 С 1
{2}
н/о н/о +17.0 +13.5 80 +19 +19 1015.5 964.7
06 20.07 ЮЗ 1
{7}
н/о н/о +18.8 +14.2 75 +21 +21 комфорт 1015.4 965.0 +15.8
07 20.07 Ю 1
{2}
н/о н/о +20.5 +14.1 67 +25 +25 комфорт 1015.2 965.1
08 20.07 Ю 2
{3}
н/о н/о +23.5 +15.1 59 +26 +26 жарко 1014.8 965.2
09 20.07 Ю 3
{5}
н/о н/о +25.0 +14.2 51 +27 +27 жарко 1014.4 965.1
10 20.07 Ю 2
{6}
н/о н/о +27.5 +15.2 47 +30 +30 жарко 1014.0 965.1
11 20.07 ЮЗ 3
{7}
н/о н/о +29.0 +13.9 40 +31 +31 жарко 1013.5 964.9
12 20.07 ЮЗ 4
{10}
н/о н/о +29.8 +12.7 35 +31 +31 жарко 1013.0 964.6
13 20.07 ЮЗ 4
{11}
н/о н/о +30.1 +12.2 33 +31 +31 жарко 1012.9 964.5

 

Местоположение метеостанции Шаффхаузен (Швейцария): широта 47.68 долгота 8.62 высота над уровнем моря 437 м.

В архиве по умолчанию представлена погода в Шаффхаузене за последнюю неделю. Архивные данные за месяц целиком и за предыдущие месяцы, начиная с января 2011 года, Вы можете получить, выбрав интересующий диапазон дат из раскрывающегося списка и нажав кнопку "Ввод!".


*Определитесь, кто Вы:
робот инопланетянин человек

Внимание! Время в таблицах - всемирное. Для получения местного времени необходимо прибавить поправку, которая равна 1 ч.

Смотрите также архив погоды в соседних городах и на ближайших метеорологических станциях:

Погода в Халлау (Швейцария) (11 км)
Погода в Тразадингене (Швейцария) (14 км)
Погода в Цюрих аэропорту (Швейцария) (23 км)
Погода на Легерне (Швейцария) (28 км)
Погода в Реккенхольце (Швейцария) (29 км)
Погода в Хайденхаусе (Швейцария) (30 км)
Погода в Тениконе (Швейцария) (31 км)
Погода на Бецнау (Швейцария) (32 км)
Погода в Цюрихе (Швейцария) (34 км)
Погода в Институте Пауля Шеррера (Швейцария) (34 км)

Пояснения к столбцам:

Ветер - указаны скорость ветра в м/с - средняя за 10 мин, порывы в срок и между сроками (в фигурных скобках) и направление, откуда дует ветер: С - северный, СВ - северо-восточный, В - восточный, ЮВ - юго-восточный, Ю - южный, ЮЗ - юго-западный, З - западный, СЗ - северо-западный.
Видимость - горизонтальная дальность видимости в метрах или километрах. При видимости от 1 до 10 км при отсутствии осадков обычно наблюдается дымка, при ухудшении видимости до 1 км и менее - туман. В сухую погоду видимость может ухудшаться дымом, пылью или мглою.
Явления - указаны атмосферные явления, наблюдавшиеся в срок или в последний час перед сроком; фигурными скобками обозначены явления, наблюдавшиеся между сроками (за 1-3 часа до срока); квадратными скобками обозначены град или гололедные отложения с указанием их диаметра в мм.
Облачность - указаны через наклонную черту общая и нижняя облачность в баллах и высота нижней границы облаков в метрах; квадратными скобками обозначены формы облаков: Ci - перистые, Cs - перисто-слоистые, Cc - перисто-кучевые, Ac - высококучевые, As - высокослоистые, Sc - слоисто-кучевые, Ns - слоисто-дождевые, Cu - кучевые, Cb - кучево-дождевые. Подробнее классификацию облаков см. в Атласе облаков (PDF).
T - Температура воздуха - температура, измеренная на высоте 2 м над землей.
Td - Температура точки росы - температура, при понижении до которой содержащийся в воздухе водяной пар достигнет насыщения.
f - Относительная влажность воздуха - влажноcть воздуха, измеренная на высоте 2 м над землей.
Te - Эффективная температура - температура, которую ощущает одетый по сезону человек в тени. Характеристика душности погоды. При расчете учитывается влияние влажности воздуха и скорости ветра на теплоощущения человека.
Tes - Эффективная температура на солнце - температура, которую ощущает человек, с поправкой на солнечный нагрев. Характеристика знойности погоды. Зависит от высоты солнца над горизонтом, облачности и скорости ветра. Ночью, в пасмурную погоду, а также при ветре 12 м/с и более поправка равна нулю.
P - Атмосферное давление - приведенное к уровню моря атмосферное давление.
Po - Атмосферное давление - измеренное на уровне метеостанции атмосферное давление.
Tmin - Минимальная температура - минимум температуры воздуха на высоте 2 м над землей.
Tmax - Максимальная температура - максимум температуры воздуха на высоте 2 м над землей.
R - Количество осадков - Количество выпавших осадков за период времени, мм. При наведении курсора мыши на число - период времени, за который выпало указанное количество осадков.
R24 - Количество осадков - Количество выпавших осадков за 24 часа, мм.
S - Снежный покров - Высота снежного покрова, см. При наведении курсора мыши на число - состояние снежного покрова и степень покрытия местности в баллах.